Regional Weather Roundup
Issued by NWS Northern Indiana

Home | Current Version | Previous Version | Text Only | Print | Product List | Glossary Off
Versions: 1 2 3 4 5 6 7 8 9 10 11 12 13 14 15 16 17 18 19 20 21 22 23 24 25 26 27 28 29 30 31 32 33 34 35 36 37 38 39 40 41 42 43 44 45 46 47 48 49 50

000
ASUS43 KIWX 262300
RWRIWX

KIWX WEATHER ROUNDUP
NATIONAL WEATHER SERVICE NORTHERN INDIANA
700 PM EDT MON JUN 26 2017

NOTE: "FAIR" INDICATES FEW OR NO CLOUDS BELOW 12,000 FEET WITH NO
SIGNIFICANT WEATHER AND/OR OBSTRUCTIONS TO VISIBILITY.

* THESE STATIONS ARE NOT UNDER NWS QUALITY CONTROL. THEY ALSO MAY NOT
  REPORT WEATHER SUCH AS PRECIPITATION OR FOG.

INZ001>027-270000-
NORTHERN INDIANA

CITY           SKY/WX    TMP DP  RH WIND       PRES   REMARKS
GARY*          PTSUNNY   72  36  26 NW14G25   30.03S
MICHIGAN CITY* MOSUNNY   64  48  55 N16       30.03F
KNOX*          MOSUNNY   64  39  39 NW5       30.02S
SOUTH BEND     SUNNY     66  45  46 NW15      30.02S
ELKHART*       MOSUNNY   68  43  40 NW13G21   30.01F
GOSHEN         MOSUNNY   65  46  50 W10       30.00F
MONTICELLO*    DRIZZLE   60  49  68 SW13G20   30.04F
FORT WAYNE     LGT RAIN  57  53  86 S8        30.04R
PERU/GRISSOM   LGT RAIN  57  54  88 W5        30.06R

$$
INZ028>050-270000-
CENTRAL INDIANA

CITY           SKY/WX    TMP DP  RH WIND       PRES   REMARKS
LAFAYETTE      LGT RAIN  56  52  86 N9        30.07R FOG
KOKOMO*        LGT RAIN  59  54  83 NW10      30.07R
MUNCIE*        CLOUDY    71  45  39 W12G20    30.03F
INDIANAPOLIS   PTSUNNY   70  48  45 W13       30.06F

$$
MIZ043>046-050>051-056>058-064>065-071>073-077>080-270000-
SOUTHWEST LOWER MICHIGAN

CITY           SKY/WX    TMP DP  RH WIND       PRES   REMARKS
BATTLE CREEK   MOSUNNY   65  45  48 NW18G24   30.00S
BENTON HARBOR  CLOUDY    64  47  53 VRB6      30.03R
COLDWATER*     MOSUNNY   68  39  34 W14G22    29.99S
HILLSDALE*     MOSUNNY   64  39  39 W17G24    29.98F
HOLLAND        CLOUDY    61  47  59 NW10      30.02F
GRAND RAPIDS   CLOUDY    61  46  57 W13G23    30.00F
KALAMAZOO      PTSUNNY   65  43  44 NW17      30.01S
STURGIS*       MOSUNNY   67  42  41 NW12G22   29.99S
THREE RIVERS*  FAIR      67  43  41 NW14G22   30.01S

$$
OHZ001>008-015>018-024>025-270000-
NORTHWEST OHIO

CITY           SKY/WX    TMP DP  RH WIND       PRES   REMARKS
DEFIANCE       CLOUDY    58  51  78 SW5       30.02F
FINDLAY        LGT RAIN  61  49  64 NW21G29   30.03R
TOLEDO EXPRESS LGT RAIN  61  53  75 W22G33    30.00R
TOLEDO METCALF LGT RAIN  68  48  48 W9        29.99S
LIMA           PTSUNNY   70  47  43 W16       30.02S

$$
AND FOR LAKE MICHIGAN COASTAL AND OPEN LAKE BUOY OBSERVATIONS

STATION/POSITION TEMP    WIND        PRES    VSBY  WAVE
                 AIR SEA DIR/SP/G                  HT/PER
                 (F)     (DEG/KT/KT) (MB)    (MI)  (FT/S)
CALUMET HARBOR    70     280/  5/ 18 1016.1S
MICHIGAN CITY     63     360/ 19/ 20   N/A
BURNS HARBOR      65     360/ 17/ 20 1016.9F
SOUTH LAKE BUOY   59 61  320/ 12/ 16 1016.9          3/ 4
4 MI NW BRIDGMAN  62 69   30/ 17/ 23 1017.1R         3/ 4
MICHIGAN CITY     63 66   20/ 17/ 21   N/A           3/ 4

$$
&&



USA.gov is the U.S. government's official web portal to all federal, state and local government web resources and services.